"Pseudo-MPEC" for C0GPD75
Created 2023 Mar 20 19:22:06 UT using Find_Orb
Click here for an explanation of pseudo-MPECs
Astrometry: C0GPD75* C2023 03 14eS@=HK,Fey?UJN#_`Y(q*Q-[cT)$vOi*Ja,umR
Astrometry;FKp
V00 C0GPD75 C2023 03 14pTM0:PiBGNN.c7lomu8wEy)uF[jm-:=agMUqqQsE%'.pxekO$BO#
V00 C0GPD75 C2023 03 14KJJ`:qG.4bu=G3I@XN!
redacted;fES@0xo4@DlEHp,g-JUpqgG*
V00 C0GPD75 C2023 03 146geB(dvttLc;JU`sKFilT:GJ
click:?k;#((@G$1%_u+HjUW*N\Q
V00 C0GPD75 KC2023 03 14.43192 11 02 07.86 +39 35 32.3 ~3EBq oNEOCP291 C0GPD75 KC2023 03 14.44744 11 01 58.52 +39 34 00.5 ~3EBq oNEOCP291 C0GPD75 mC2023 03 14rN+2v/oTAr\#l]'oH\N.1YV!4h_=J65Su!)^'x9JO%q3`f[Bni-M
V00 C0GPD75 mC2023 03 14.;Bn2l^GyZ(]1_+atYB/U
here6Sc=SK2O
for?EAXFAlIId`*vFi]
V00 C0GPD75 mC2023 03 14kWwg@SWsNg`Ua+Qs,re/uOoYK;bZGs14:dk3?:HZoceF\KrGZHPP
V00 C0GPD75 mC2023 03 14[VE^%+87@RUe?6_Y^?)!^)]0V^D$4t_j@w
explanationcy)!j#-
V00 C0GPD75 KC2023 03 14.46317 11 01 49.24 +39 32 25.2 ~3EBq oNEOCP291 Station data: (291) LPL/Spacewatch II (N31.961669 W111.599905) US/Arizona. Observers J. V. Scotti, R. S. McMillan. 1.8-m f/2.7 reflector + CCD. (V00) Kitt Peak-Bok (N31.963125 W111.600190) US/Arizona. Observers T. A. Pruyne, B. M. Africano, E. J. Christensen, G. A. Farneth, D. C. Fuls, A. R. Gibbs, A. D. Grauer, H. Gröller, J. A. Johnson, R. A. Kowalski, S. M. Larson, G. J. Leonard, D. Rankin, R. L. Seaman, F. C. Shelly, K. W. Wierzchoś. 2.25-m reflector + CCD. Orbital elements: C0GPD75 Perihelion 2022 Oct 10.04441 +/- 127 TT = 1:03:56 (JD 2459862.54441) Epoch 2023 Mar 14.0 TT = JDT 2460017.5 Earth MOID: 0.0856 AutoNEOCP M 161.16043634 +/- 60 (J2000 ecliptic) n 1.04004272 +/- 0.113 Peri. 2.93936 +/- 52 a 0.96479548 +/- 0.0697 Node 2.64533 +/- 1.6 e 0.1221203 +/- 0.0432 Incl. 14.04255 +/- 3.7 P 0.95/346.13d H 25.78 G 0.15 U 11.3 SR q 0.84697435 +/- 0.0827 Q 1.08261661 +/- 0.105 From 11 observations 2023 Mar. 14 (3.9 hr); mean residual 0".55
Residuals in arcseconds: 230314 V00 .31- .21+ 230314 291 .33+ .59+ 230314 V00 .54+ .44- 230314 V00 .08- .04+ 230314 291 1.1- 1.3+ 230314 V00 .47+ .27- 230314 V00 .23+ .20+ 230314 V00 .42+ .28- 230314 291 1.0- .01+ 230314 V00 .20+ .70- 230314 V00 .35+ .62- Ephemerides (geocentric): Date (UTC) HH RA Dec delta r elong mag " sig PA ---- -------- ------------ ------------ ------ ------ ----- --- -------- 2023 03 20 19 10 10 26.724 +28 22 41.16 .10547 1.0806 141.7 22.6 7108 129 2023 03 20 20 10 10 09.918 +28 18 03.55 .10551 1.0807 141.7 22.6 7207 129 2023 03 20 21 10 09 53.157 +28 13 25.94 .10555 1.0807 141.7 22.6 7307 129 2023 03 20 22 10 09 36.442 +28 08 48.32 .10560 1.0807 141.7 22.6 7408 129 2023 03 20 23 10 09 19.772 +28 04 10.72 .10564 1.0807 141.6 22.6 7510 129 2023 03 21 00 10 09 03.148 +27 59 33.12 .10568 1.0807 141.6 22.6 7612 129 2023 03 21 01 10 08 46.568 +27 54 55.53 .10573 1.0807 141.6 22.6 7715 129 2023 03 21 02 10 08 30.034 +27 50 17.95 .10577 1.0807 141.5 22.6 7819 129 2023 03 21 03 10 08 13.545 +27 45 40.40 .10581 1.0808 141.5 22.6 7924 129 2023 03 21 04 10 07 57.101 +27 41 02.86 .10586 1.0808 141.5 22.6 8029 129 2023 03 21 05 10 07 40.703 +27 36 25.34 .10590 1.0808 141.4 22.6 8135 128 2023 03 21 06 10 07 24.349 +27 31 47.85 .10595 1.0808 141.4 22.6 8241 128 2023 03 21 07 10 07 08.040 +27 27 10.39 .10600 1.0808 141.4 22.6 8349 128 2023 03 21 08 10 06 51.776 +27 22 32.96 .10604 1.0808 141.3 22.6 8456 128 2023 03 21 09 10 06 35.557 +27 17 55.56 .10609 1.0808 141.3 22.6 8565 128 2023 03 21 10 10 06 19.383 +27 13 18.20 .10613 1.0809 141.3 22.6 8674 128 2023 03 21 11 10 06 03.253 +27 08 40.88 .10618 1.0809 141.2 22.6 8785 128 2023 03 21 12 10 05 47.168 +27 04 03.61 .10623 1.0809 141.2 22.6 8895 128 2023 03 21 13 10 05 31.128 +26 59 26.38 .10628 1.0809 141.2 22.6 9007 128 2023 03 21 14 10 05 15.132 +26 54 49.19 .10633 1.0809 141.1 22.6 9119 128 2023 03 21 15 10 04 59.181 +26 50 12.06 .10637 1.0809 141.1 22.6 9231 128 2023 03 21 16 10 04 43.274 +26 45 34.99 .10642 1.0809 141.1 22.6 9345 128 2023 03 21 17 10 04 27.412 +26 40 57.97 .10647 1.0809 141.0 22.6 9459 128 2023 03 21 18 10 04 11.593 +26 36 21.01 .10652 1.0810 141.0 22.6 9574 128 2023 03 21 19 10 03 55.820 +26 31 44.11 .10657 1.0810 140.9 22.6 9689 128 2023 03 21 20 10 03 40.090 +26 27 07.28 .10662 1.0810 140.9 22.6 9805 128 2023 03 21 21 10 03 24.404 +26 22 30.52 .10667 1.0810 140.9 22.6 9922 128 2023 03 21 22 10 03 08.763 +26 17 53.83 .10673 1.0810 140.8 22.6 167' 128 2023 03 21 23 10 02 53.166 +26 13 17.21 .10678 1.0810 140.8 22.6 169' 128 2023 03 22 00 10 02 37.612 +26 08 40.66 .10683 1.0810 140.8 22.6 171' 128 2023 03 22 01 10 02 22.103 +26 04 04.20 .10688 1.0811 140.7 22.6 173' 128 2023 03 22 02 10 02 06.637 +25 59 27.82 .10693 1.0811 140.7 22.6 175' 128 2023 03 22 03 10 01 51.215 +25 54 51.52 .10699 1.0811 140.6 22.6 177' 127 2023 03 22 04 10 01 35.837 +25 50 15.31 .10704 1.0811 140.6 22.6 179' 127 2023 03 22 05 10 01 20.502 +25 45 39.19 .10709 1.0811 140.6 22.6 181' 127 2023 03 22 06 10 01 05.211 +25 41 03.16 .10715 1.0811 140.5 22.6 183' 127 2023 03 22 07 10 00 49.964 +25 36 27.23 .10720 1.0811 140.5 22.6 185' 127 2023 03 22 08 10 00 34.760 +25 31 51.39 .10726 1.0811 140.5 22.6 188' 127 2023 03 22 09 10 00 19.599 +25 27 15.66 .10731 1.0812 140.4 22.6 190' 127 2023 03 22 10 10 00 04.482 +25 22 40.02 .10737 1.0812 140.4 22.6 192' 127 2023 03 22 11 09 59 49.408 +25 18 04.50 .10742 1.0812 140.3 22.6 194' 127 2023 03 22 12 09 59 34.377 +25 13 29.08 .10748 1.0812 140.3 22.6 196' 127 2023 03 22 13 09 59 19.389 +25 08 53.77 .10753 1.0812 140.3 22.6 198' 127 2023 03 22 14 09 59 04.445 +25 04 18.57 .10759 1.0812 140.2 22.6 200' 127 2023 03 22 15 09 58 49.543 +24 59 43.49 .10765 1.0812 140.2 22.6 202' 127 2023 03 22 16 09 58 34.684 +24 55 08.52 .10770 1.0812 140.1 22.6 204' 127 2023 03 22 17 09 58 19.868 +24 50 33.68 .10776 1.0813 140.1 22.6 207' 127 2023 03 22 18 09 58 05.095 +24 45 58.96 .10782 1.0813 140.0 22.6 209' 127